AIB99C CYHZ-KCLE

Flight info

Callsign AIB99C
Flight time 2h 7m
Altitude 36000
Route CYHZ CYHZ4 ALB DCT SLT DCT CXR KCLE
Aircraft A333/H-VGDW/C

Departure

Time 2026-05-04 23:53
Airport Halifax / Stanfield International Airport (CYHZ)

Arrival

Time 2026-05-05 02:01
Airport Cleveland Hopkins International Airport (KCLE)
Time Latitude Longitude Altitude Speed Heading
2026-05-04 23:27 44.86765 -63.53281 466 ft 0 kts 221°
2026-05-04 23:34 44.86767 -63.53279 465 ft 2 kts 221°
2026-05-04 23:34 44.86780 -63.53263 463 ft 2 kts 221°
2026-05-04 23:34 44.86792 -63.53248 463 ft 2 kts 221°
2026-05-04 23:35 44.86806 -63.53233 462 ft 3 kts 191°
2026-05-04 23:35 44.86825 -63.53233 462 ft 3 kts 147°
2026-05-04 23:35 44.86832 -63.53239 463 ft 0 kts 126°
2026-05-04 23:37 44.86831 -63.53237 463 ft 1 kts 126°
2026-05-04 23:37 44.86815 -63.53207 464 ft 6 kts 126°
2026-05-04 23:37 44.86779 -63.53137 466 ft 11 kts 126°
2026-05-04 23:37 44.86735 -63.53021 466 ft 15 kts 94°
2026-05-04 23:38 44.86788 -63.52883 465 ft 18 kts 49°
2026-05-04 23:38 44.86889 -63.52744 465 ft 23 kts 38°
2026-05-04 23:38 44.87025 -63.52602 465 ft 26 kts 35°
2026-05-04 23:38 44.87175 -63.52454 465 ft 27 kts 34°
2026-05-04 23:39 44.87335 -63.52297 464 ft 29 kts 35°
2026-05-04 23:39 44.87505 -63.52131 464 ft 30 kts 35°
2026-05-04 23:39 44.87681 -63.51956 461 ft 31 kts 35°
2026-05-04 23:39 44.87851 -63.51787 463 ft 26 kts 35°
2026-05-04 23:40 44.87993 -63.51646 463 ft 20 kts 35°
2026-05-04 23:40 44.88050 -63.51590 462 ft 10 kts 34°
2026-05-04 23:40 44.88115 -63.51527 462 ft 12 kts 34°
2026-05-04 23:40 44.88191 -63.51454 462 ft 14 kts 34°
2026-05-04 23:41 44.88277 -63.51371 462 ft 16 kts 34°
2026-05-04 23:41 44.88370 -63.51274 462 ft 17 kts 39°
2026-05-04 23:41 44.88458 -63.51203 461 ft 10 kts
2026-05-04 23:41 44.88472 -63.51200 461 ft 0 kts
2026-05-04 23:42 44.88480 -63.51199 461 ft 3 kts
2026-05-04 23:42 44.88511 -63.51197 461 ft 6 kts
2026-05-04 23:43 44.88565 -63.51197 461 ft 9 kts 358°
2026-05-04 23:43 44.88640 -63.51181 461 ft 12 kts 25°
2026-05-04 23:43 44.88688 -63.51108 461 ft 10 kts 58°
2026-05-04 23:43 44.88718 -63.51007 461 ft 12 kts 70°
2026-05-04 23:44 44.88758 -63.50907 461 ft 0 kts 50°
2026-05-04 23:44 44.88761 -63.50901 461 ft 3 kts 50°
2026-05-04 23:44 44.88815 -63.50834 461 ft 18 kts 38°
2026-05-04 23:44 44.88949 -63.50701 460 ft 22 kts 34°
2026-05-04 23:45 44.88994 -63.50635 460 ft 0 kts 74°
2026-05-04 23:51 44.88994 -63.50582 460 ft 12 kts 102°
2026-05-04 23:51 44.88926 -63.50437 460 ft 24 kts 135°
2026-05-04 23:52 44.88866 -63.50372 460 ft 1 kts 183°
2026-05-04 23:52 44.88859 -63.50381 460 ft 2 kts 222°
2026-05-04 23:52 44.88826 -63.50463 461 ft 19 kts 238°
2026-05-04 23:52 44.88648 -63.50674 463 ft 63 kts 216°
2026-05-04 23:53 44.88066 -63.51243 461 ft 138 kts 215°
2026-05-04 23:53 44.87123 -63.52158 734 ft 184 kts 217°
2026-05-04 23:53 44.85942 -63.53195 1342 ft 217 kts 215°
2026-05-04 23:53 44.84558 -63.54372 2113 ft 245 kts 218°
2026-05-04 23:54 44.83196 -63.55926 3159 ft 255 kts 240°
2026-05-04 23:54 44.82730 -63.58229 4898 ft 242 kts 274°
2026-05-04 23:54 44.83313 -63.60358 6780 ft 235 kts 297°
2026-05-04 23:54 44.84106 -63.62326 8412 ft 220 kts 284°
2026-05-04 23:55 44.84210 -63.64419 9388 ft 224 kts 263°
2026-05-04 23:55 44.83686 -63.66611 9807 ft 251 kts 247°
2026-05-04 23:55 44.81515 -63.71072 10478 ft 299 kts 237°
2026-05-04 23:56 44.80190 -63.73442 10886 ft 315 kts 237°
2026-05-04 23:56 44.78834 -63.75890 11710 ft 317 kts 238°
2026-05-04 23:56 44.77502 -63.78369 12657 ft 315 kts 238°
2026-05-04 23:56 44.76214 -63.80843 13630 ft 313 kts 239°
2026-05-04 23:57 44.74940 -63.83355 14282 ft 318 kts 240°
2026-05-04 23:57 44.73666 -63.85908 15035 ft 318 kts 240°
2026-05-04 23:57 44.72406 -63.88445 15953 ft 314 kts 241°
2026-05-04 23:57 44.71161 -63.90954 16809 ft 312 kts 241°
2026-05-04 23:58 44.69909 -63.93484 17298 ft 321 kts 241°
2026-05-04 23:58 44.68610 -63.96114 17630 ft 333 kts 241°
2026-05-04 23:58 44.67337 -63.98808 18178 ft 335 kts 244°
2026-05-04 23:58 44.66254 -64.01686 18845 ft 332 kts 249°
2026-05-04 23:59 44.65269 -64.04615 19539 ft 331 kts 250°
2026-05-04 23:59 44.64339 -64.07556 20236 ft 329 kts 251°
2026-05-04 23:59 44.63438 -64.10508 20938 ft 327 kts 252°
2026-05-04 23:59 44.62554 -64.13453 21549 ft 329 kts 252°
2026-05-05 00:00 44.61655 -64.16468 21834 ft 339 kts 252°
2026-05-05 00:00 44.61356 -64.17471 21907 ft 343 kts 252°
2026-05-05 00:00 44.59769 -64.22765 22259 ft 359 kts 252°
2026-05-05 00:00 44.58793 -64.25994 22421 ft 369 kts 252°
2026-05-05 00:01 44.57775 -64.29337 22775 ft 375 kts 252°
2026-05-05 00:01 44.56746 -64.32690 23363 ft 374 kts 252°
2026-05-05 00:01 44.55713 -64.36044 23867 ft 374 kts 252°
2026-05-05 00:01 44.54681 -64.39392 24352 ft 374 kts 252°
2026-05-05 00:02 44.53650 -64.42741 24844 ft 374 kts 253°
2026-05-05 00:02 44.52620 -64.46085 25367 ft 374 kts 253°
2026-05-05 00:02 44.51591 -64.49425 25846 ft 373 kts 253°
2026-05-05 00:02 44.50564 -64.52759 26343 ft 373 kts 253°
2026-05-05 00:03 44.49531 -64.56112 26674 ft 377 kts 253°
2026-05-05 00:03 44.48482 -64.59523 26859 ft 385 kts 253°
2026-05-05 00:03 44.47413 -64.62994 26984 ft 392 kts 253°
2026-05-05 00:03 44.46320 -64.66538 27110 ft 400 kts 253°
2026-05-05 00:04 44.45221 -64.70088 27263 ft 407 kts 253°
2026-05-05 00:04 44.44083 -64.73755 27428 ft 413 kts 252°
2026-05-05 00:04 44.42928 -64.77464 27743 ft 416 kts 252°
2026-05-05 00:04 44.41769 -64.81173 28164 ft 416 kts 252°
2026-05-05 00:05 44.40608 -64.84880 28621 ft 416 kts 253°
2026-05-05 00:05 44.39448 -64.88581 29074 ft 415 kts 253°
2026-05-05 00:05 44.38289 -64.92278 29522 ft 416 kts 254°
2026-05-05 00:05 44.37128 -64.95984 29923 ft 416 kts 254°
2026-05-05 00:06 44.35967 -64.99683 30266 ft 415 kts 254°
2026-05-05 00:06 44.34803 -65.03387 30503 ft 418 kts 253°
2026-05-05 00:06 44.33632 -65.07109 30862 ft 418 kts 253°
2026-05-05 00:06 44.32461 -65.10820 31315 ft 416 kts 252°
2026-05-05 00:07 44.31307 -65.14470 31760 ft 414 kts 252°
2026-05-05 00:07 44.30148 -65.18135 32172 ft 412 kts 251°
2026-05-05 00:07 44.28989 -65.21794 32582 ft 411 kts 251°
2026-05-05 00:07 44.27837 -65.25432 32976 ft 410 kts 250°
2026-05-05 00:08 44.26668 -65.29116 33376 ft 409 kts 250°
2026-05-05 00:08 44.25533 -65.32689 33757 ft 408 kts 249°
2026-05-05 00:08 44.24386 -65.36298 34082 ft 407 kts 249°
2026-05-05 00:08 44.23235 -65.39912 34254 ft 409 kts 249°
2026-05-05 00:09 44.22071 -65.43566 34424 ft 411 kts 249°
2026-05-05 00:09 44.20906 -65.47214 34669 ft 412 kts 249°
2026-05-05 00:09 44.19738 -65.50865 34915 ft 413 kts 249°
2026-05-05 00:09 44.18566 -65.54522 35128 ft 414 kts 249°
2026-05-05 00:10 44.17390 -65.58187 35367 ft 414 kts 249°
2026-05-05 00:10 44.16224 -65.61815 35598 ft 415 kts 248°
2026-05-05 00:10 44.15042 -65.65489 35802 ft 416 kts 248°
2026-05-05 00:11 44.12641 -65.72941 35860 ft 427 kts 248°
2026-05-05 00:11 44.10169 -65.80591 35860 ft 438 kts 248°
2026-05-05 00:12 44.07649 -65.88360 35868 ft 445 kts 248°
2026-05-05 00:12 44.05097 -65.96198 35869 ft 444 kts 248°
2026-05-05 00:13 44.02545 -66.04016 35874 ft 444 kts 248°
2026-05-05 00:13 43.99988 -66.11830 35868 ft 445 kts 248°
2026-05-05 00:14 43.97414 -66.19673 35875 ft 445 kts 248°
2026-05-05 00:14 43.94839 -66.27500 35879 ft 446 kts 248°
2026-05-05 00:15 43.92259 -66.35314 35876 ft 446 kts 248°
2026-05-05 00:15 43.89686 -66.43085 35872 ft 446 kts 248°
2026-05-05 00:16 43.87094 -66.50892 35863 ft 446 kts 248°
2026-05-05 00:16 43.84490 -66.58714 35870 ft 446 kts 248°
2026-05-05 00:17 43.81879 -66.66528 35869 ft 448 kts 249°
2026-05-05 00:17 43.79253 -66.74371 35875 ft 449 kts 249°
2026-05-05 00:18 43.76619 -66.82214 35876 ft 449 kts 249°
2026-05-05 00:18 43.73992 -66.90011 35876 ft 450 kts 249°
2026-05-05 00:19 43.71389 -66.97877 35878 ft 448 kts 253°
2026-05-05 00:19 43.69927 -67.06177 35877 ft 444 kts 262°
2026-05-05 00:20 43.68941 -67.14599 35876 ft 444 kts 264°
2026-05-05 00:20 43.68192 -67.21620 35875 ft 443 kts 264°
2026-05-05 00:21 43.67282 -67.30043 35880 ft 444 kts 264°
2026-05-05 00:21 43.66345 -67.38467 35874 ft 444 kts 263°
2026-05-05 00:22 43.65390 -67.46897 35879 ft 445 kts 263°
2026-05-05 00:22 43.64426 -67.55338 35878 ft 445 kts 263°
2026-05-05 00:23 43.63457 -67.63769 35880 ft 445 kts 264°
2026-05-05 00:23 43.62482 -67.72205 35878 ft 445 kts 264°
2026-05-05 00:24 43.61506 -67.80593 35877 ft 445 kts 264°
2026-05-05 00:24 43.60518 -67.89028 35878 ft 445 kts 264°
2026-05-05 00:25 43.59523 -67.97460 35861 ft 446 kts 264°
2026-05-05 00:25 43.58520 -68.05915 35872 ft 447 kts 264°
2026-05-05 00:26 43.57510 -68.14370 35871 ft 447 kts 264°
2026-05-05 00:26 43.56492 -68.22839 35876 ft 447 kts 264°
2026-05-05 00:27 43.55468 -68.31294 35868 ft 447 kts 264°
2026-05-05 00:27 43.54439 -68.39745 35860 ft 447 kts 264°
2026-05-05 00:28 43.53403 -68.48197 35868 ft 447 kts 264°
2026-05-05 00:28 43.52361 -68.56639 35841 ft 447 kts 264°
2026-05-05 00:29 43.51313 -68.65086 35869 ft 448 kts 264°
2026-05-05 00:29 43.50257 -68.73549 35864 ft 448 kts 264°
2026-05-05 00:30 43.49200 -68.81956 35861 ft 448 kts 264°
2026-05-05 00:30 43.48130 -68.90416 35865 ft 448 kts 264°
2026-05-05 00:31 43.47055 -68.98864 35867 ft 448 kts 264°
2026-05-05 00:31 43.45972 -69.07321 35866 ft 448 kts 264°
2026-05-05 00:32 43.44882 -69.15781 35857 ft 448 kts 264°
2026-05-05 00:32 43.43787 -69.24234 35860 ft 449 kts 264°
2026-05-05 00:33 43.42682 -69.32703 35851 ft 450 kts 264°
2026-05-05 00:33 43.41571 -69.41174 35857 ft 450 kts 264°
2026-05-05 00:34 43.40454 -69.49639 35849 ft 450 kts 264°
2026-05-05 00:34 43.39331 -69.58099 35852 ft 450 kts 264°
2026-05-05 00:35 43.38202 -69.66554 35848 ft 450 kts 264°
2026-05-05 00:35 43.37066 -69.75008 35844 ft 450 kts 264°
2026-05-05 00:36 43.35931 -69.83416 35849 ft 450 kts 264°
2026-05-05 00:36 43.34781 -69.91875 35849 ft 451 kts 264°
2026-05-05 00:37 43.33624 -70.00344 35832 ft 451 kts 264°
2026-05-05 00:37 43.32461 -70.08802 35819 ft 451 kts 264°
2026-05-05 00:38 43.31291 -70.17267 35817 ft 451 kts 263°
2026-05-05 00:38 43.30115 -70.25722 35820 ft 451 kts 263°
2026-05-05 00:39 43.28931 -70.34190 35806 ft 451 kts 263°
2026-05-05 00:39 43.27752 -70.42577 35812 ft 451 kts 263°
2026-05-05 00:40 43.26553 -70.51051 35810 ft 451 kts 263°
2026-05-05 00:40 43.25351 -70.59508 35811 ft 452 kts 263°
2026-05-05 00:41 43.24142 -70.67961 35809 ft 452 kts 263°
2026-05-05 00:41 43.22926 -70.76415 35801 ft 452 kts 263°
2026-05-05 00:42 43.21703 -70.84870 35803 ft 452 kts 263°
2026-05-05 00:42 43.20475 -70.93323 35802 ft 452 kts 263°
2026-05-05 00:43 43.19272 -71.01548 35805 ft 452 kts 263°
2026-05-05 00:43 43.18029 -71.10005 35802 ft 452 kts 263°
2026-05-05 00:44 43.16783 -71.18446 35809 ft 452 kts 263°
2026-05-05 00:44 43.15529 -71.26883 35814 ft 452 kts 263°
2026-05-05 00:45 43.14268 -71.35327 35810 ft 452 kts 262°
2026-05-05 00:45 43.13002 -71.43765 35811 ft 452 kts 262°
2026-05-05 00:46 43.11727 -71.52209 35814 ft 452 kts 262°
2026-05-05 00:46 43.10447 -71.60643 35811 ft 452 kts 262°
2026-05-05 00:47 43.09169 -71.69025 35815 ft 453 kts 262°
2026-05-05 00:47 43.07876 -71.77455 35816 ft 453 kts 262°
2026-05-05 00:48 43.06577 -71.85885 35827 ft 453 kts 262°
2026-05-05 00:48 43.05272 -71.94313 35829 ft 453 kts 262°
2026-05-05 00:49 43.03958 -72.02747 35829 ft 453 kts 262°
2026-05-05 00:49 43.02649 -72.11109 35841 ft 453 kts 262°
2026-05-05 00:50 43.01327 -72.19514 35814 ft 453 kts 262°
2026-05-05 00:50 42.99996 -72.27936 35828 ft 453 kts 262°
2026-05-05 00:51 42.98656 -72.36363 35830 ft 453 kts 261°
2026-05-05 00:51 42.97313 -72.44767 35832 ft 453 kts 261°
2026-05-05 00:52 42.95963 -72.53171 35831 ft 453 kts 261°
2026-05-05 00:52 42.94606 -72.61589 35829 ft 453 kts 261°
2026-05-05 00:53 42.93246 -72.69981 35828 ft 452 kts 261°
2026-05-05 00:53 42.91883 -72.78343 35826 ft 451 kts 261°
2026-05-05 00:54 42.90513 -72.86715 35827 ft 452 kts 261°
2026-05-05 00:54 42.89147 -72.95025 35829 ft 452 kts 261°
2026-05-05 00:55 42.87761 -73.03400 35827 ft 451 kts 261°
2026-05-05 00:55 42.86375 -73.11745 35824 ft 451 kts 261°
2026-05-05 00:56 42.84982 -73.20091 35829 ft 451 kts 261°
2026-05-05 00:56 42.83592 -73.28379 35824 ft 451 kts 261°
2026-05-05 00:57 42.82187 -73.36717 35826 ft 451 kts 260°
2026-05-05 00:57 42.80779 -73.45028 35818 ft 450 kts 260°
2026-05-05 00:58 42.79365 -73.53340 35807 ft 451 kts 260°
2026-05-05 00:58 42.77942 -73.61662 35814 ft 451 kts 260°
2026-05-05 00:59 42.76516 -73.69966 35812 ft 450 kts 260°
2026-05-05 00:59 42.75081 -73.78234 35813 ft 449 kts 258°
2026-05-05 01:00 42.73100 -73.86320 35811 ft 451 kts 254°
2026-05-05 01:00 42.70939 -73.94292 35812 ft 451 kts 253°
2026-05-05 01:01 42.68726 -74.02285 35817 ft 452 kts 253°
2026-05-05 01:01 42.66514 -74.10266 35820 ft 451 kts 253°
2026-05-05 01:02 42.64306 -74.18239 35823 ft 451 kts 253°
2026-05-05 01:02 42.62094 -74.26219 35816 ft 451 kts 253°
2026-05-05 01:03 42.59878 -74.34188 35822 ft 451 kts 253°
2026-05-05 01:03 42.57663 -74.42128 35822 ft 450 kts 253°
2026-05-05 01:04 42.55456 -74.50012 35825 ft 450 kts 253°
2026-05-05 01:04 42.52111 -74.61912 35837 ft 450 kts 253°
2026-05-05 01:05 42.49873 -74.69840 35827 ft 450 kts 253°
2026-05-05 01:05 42.47629 -74.77767 35835 ft 450 kts 252°
2026-05-05 01:06 42.45379 -74.85688 35826 ft 451 kts 252°
2026-05-05 01:06 42.43262 -74.93119 35825 ft 451 kts 252°
2026-05-05 01:07 42.41081 -75.00754 35834 ft 452 kts 252°
2026-05-05 01:07 42.38824 -75.08630 35829 ft 452 kts 252°
2026-05-05 01:08 42.36552 -75.16535 35832 ft 451 kts 252°
2026-05-05 01:08 42.34272 -75.24438 35825 ft 451 kts 252°
2026-05-05 01:09 42.31989 -75.32332 35825 ft 451 kts 252°
2026-05-05 01:09 42.29701 -75.40218 35820 ft 451 kts 252°
2026-05-05 01:10 42.27406 -75.48106 35817 ft 451 kts 252°
2026-05-05 01:10 42.25499 -75.54635 35817 ft 450 kts 252°
2026-05-05 01:11 42.22825 -75.63769 35821 ft 450 kts 252°
2026-05-05 01:11 42.20516 -75.71630 35820 ft 450 kts 252°
2026-05-05 01:12 42.18595 -75.78152 35819 ft 450 kts 252°
2026-05-05 01:12 42.16278 -75.85998 35807 ft 451 kts 251°
2026-05-05 01:13 42.13950 -75.93855 35817 ft 451 kts 251°
2026-05-05 01:13 42.11615 -76.01713 35819 ft 452 kts 251°
2026-05-05 01:14 42.09274 -76.09564 35791 ft 452 kts 251°
2026-05-05 01:14 42.06928 -76.17413 35800 ft 452 kts 251°
2026-05-05 01:15 42.04589 -76.25210 35790 ft 453 kts 251°
2026-05-05 01:15 42.02228 -76.33060 35799 ft 453 kts 251°
2026-05-05 01:16 41.99860 -76.40909 35778 ft 453 kts 251°
2026-05-05 01:16 41.97487 -76.48751 35794 ft 453 kts 251°
2026-05-05 01:17 41.95108 -76.56588 35783 ft 452 kts 251°
2026-05-05 01:17 41.92746 -76.64345 35778 ft 451 kts 251°
2026-05-05 01:18 41.90367 -76.72139 35776 ft 451 kts 251°
2026-05-05 01:18 41.87978 -76.79939 35768 ft 451 kts 251°
2026-05-05 01:19 41.85587 -76.87726 35756 ft 451 kts 251°
2026-05-05 01:19 41.83192 -76.95501 35774 ft 451 kts 250°
2026-05-05 01:20 41.80792 -77.03271 35775 ft 451 kts 250°
2026-05-05 01:20 41.78385 -77.11039 35786 ft 451 kts 250°
2026-05-05 01:21 41.75988 -77.18754 35786 ft 451 kts 250°
2026-05-05 01:21 41.73573 -77.26501 35803 ft 449 kts 250°
2026-05-05 01:22 41.71170 -77.34189 35796 ft 447 kts 250°
2026-05-05 01:22 41.68766 -77.41860 35805 ft 448 kts 250°
2026-05-05 01:23 41.66349 -77.49550 35810 ft 448 kts 250°
2026-05-05 01:23 41.63925 -77.57236 35810 ft 448 kts 250°
2026-05-05 01:24 41.61499 -77.64910 35808 ft 447 kts 250°
2026-05-05 01:24 41.59087 -77.72517 35814 ft 447 kts 250°
2026-05-05 01:25 41.56656 -77.80164 35816 ft 447 kts 250°
2026-05-05 01:25 41.54222 -77.87800 35818 ft 447 kts 250°
2026-05-05 01:26 41.51915 -77.95513 35822 ft 445 kts 258°
2026-05-05 01:26 41.50855 -78.03600 35827 ft 442 kts 262°
2026-05-05 01:27 41.49839 -78.11678 35831 ft 442 kts 263°
2026-05-05 01:27 41.48860 -78.19761 35831 ft 441 kts 263°
2026-05-05 01:28 41.47910 -78.27841 35829 ft 441 kts 263°
2026-05-05 01:28 41.46961 -78.35922 35825 ft 441 kts 263°
2026-05-05 01:29 41.46009 -78.43948 35823 ft 441 kts 263°
2026-05-05 01:29 41.45043 -78.52016 35826 ft 441 kts 263°
2026-05-05 01:30 41.44071 -78.60089 35824 ft 441 kts 263°
2026-05-05 01:30 41.43093 -78.68159 35830 ft 441 kts 263°
2026-05-05 01:31 41.42108 -78.76243 35819 ft 442 kts 262°
2026-05-05 01:31 41.41116 -78.84327 35818 ft 442 kts 262°
2026-05-05 01:32 41.40118 -78.92410 35819 ft 442 kts 262°
2026-05-05 01:32 41.39116 -79.00482 36083 ft 442 kts 262°
2026-05-05 01:33 41.38612 -79.04525 35937 ft 442 kts 262°
2026-05-05 01:33 41.38108 -79.08558 35822 ft 441 kts 262°
2026-05-05 01:33 41.37609 -79.12535 35583 ft 438 kts 262°
2026-05-05 01:33 41.37104 -79.16544 34692 ft 441 kts 262°
2026-05-05 01:34 41.36590 -79.20623 33486 ft 450 kts 262°
2026-05-05 01:34 41.36066 -79.24782 32195 ft 458 kts 262°
2026-05-05 01:34 41.35536 -79.28968 31417 ft 456 kts 262°
2026-05-05 01:34 41.35017 -79.33048 30812 ft 450 kts 261°
2026-05-05 01:35 41.34493 -79.37136 30246 ft 444 kts 261°
2026-05-05 01:35 41.33978 -79.41155 29708 ft 436 kts 261°
2026-05-05 01:35 41.33469 -79.45112 29078 ft 431 kts 261°
2026-05-05 01:35 41.32966 -79.49011 28431 ft 426 kts 261°
2026-05-05 01:36 41.32466 -79.52881 27758 ft 422 kts 261°
2026-05-05 01:36 41.31971 -79.56704 27114 ft 417 kts 261°
2026-05-05 01:36 41.31479 -79.60490 26486 ft 414 kts 261°
2026-05-05 01:36 41.30992 -79.64242 25855 ft 410 kts 261°
2026-05-05 01:37 41.30506 -79.67966 25202 ft 407 kts 260°
2026-05-05 01:37 41.30023 -79.71662 24567 ft 404 kts 260°
2026-05-05 01:37 41.29542 -79.75329 24064 ft 399 kts 260°
2026-05-05 01:37 41.29071 -79.78911 23838 ft 386 kts 260°
2026-05-05 01:38 41.28622 -79.82314 23808 ft 373 kts 260°
2026-05-05 01:38 41.28175 -79.85696 23801 ft 371 kts 260°
2026-05-05 01:38 41.27727 -79.89072 23804 ft 372 kts 260°
2026-05-05 01:38 41.27277 -79.92460 23803 ft 372 kts 260°
2026-05-05 01:39 41.26827 -79.95843 23807 ft 372 kts 260°
2026-05-05 01:39 41.26375 -79.99230 23803 ft 372 kts 260°
2026-05-05 01:39 41.25922 -80.02619 23805 ft 372 kts 260°
2026-05-05 01:39 41.25469 -80.06006 23806 ft 372 kts 260°
2026-05-05 01:40 41.25015 -80.09391 23814 ft 372 kts 260°
2026-05-05 01:40 41.24708 -80.12810 23811 ft 372 kts 269°
2026-05-05 01:40 41.24916 -80.16239 23816 ft 373 kts 277°
2026-05-05 01:40 41.25374 -80.19633 23771 ft 372 kts 280°
2026-05-05 01:41 41.25888 -80.23004 23261 ft 372 kts 280°
2026-05-05 01:41 41.26417 -80.26357 22694 ft 369 kts 281°
2026-05-05 01:41 41.26945 -80.29674 22172 ft 365 kts 280°
2026-05-05 01:41 41.27467 -80.32955 21635 ft 361 kts 280°
2026-05-05 01:42 41.27983 -80.36203 21103 ft 358 kts 280°
2026-05-05 01:42 41.28489 -80.39389 20596 ft 355 kts 280°
2026-05-05 01:42 41.28995 -80.42584 20089 ft 352 kts 280°
2026-05-05 01:42 41.29497 -80.45757 19581 ft 349 kts 280°
2026-05-05 01:43 41.30133 -80.48864 19047 ft 348 kts 288°
2026-05-05 01:43 41.31083 -80.51815 18565 ft 346 kts 292°
2026-05-05 01:43 41.32123 -80.54685 18082 ft 343 kts 294°
2026-05-05 01:43 41.33184 -80.57513 17567 ft 339 kts 294°
2026-05-05 01:44 41.34243 -80.60302 17040 ft 336 kts 294°
2026-05-05 01:44 41.35295 -80.63059 16528 ft 332 kts 294°
2026-05-05 01:44 41.36338 -80.65787 16014 ft 329 kts 294°
2026-05-05 01:44 41.37369 -80.68484 15512 ft 325 kts 294°
2026-05-05 01:45 41.38390 -80.71153 15012 ft 322 kts 294°
2026-05-05 01:45 41.39403 -80.73801 14511 ft 319 kts 294°
2026-05-05 01:45 41.40404 -80.76424 14018 ft 316 kts 294°
2026-05-05 01:45 41.41392 -80.79012 13549 ft 312 kts 294°
2026-05-05 01:46 41.42372 -80.81579 13010 ft 309 kts 294°
2026-05-05 01:46 41.43340 -80.84118 12505 ft 305 kts 294°
2026-05-05 01:46 41.44296 -80.86630 12004 ft 302 kts 294°
2026-05-05 01:46 41.45231 -80.89086 11788 ft 300 kts 293°
2026-05-05 01:47 41.46175 -80.91571 11753 ft 301 kts 293°
2026-05-05 01:47 41.47120 -80.94061 11274 ft 302 kts 293°
2026-05-05 01:47 41.48064 -80.96549 10771 ft 299 kts 292°
2026-05-05 01:47 41.48993 -80.98996 10302 ft 294 kts 292°
2026-05-05 01:48 41.49910 -81.01416 9825 ft 290 kts 292°
2026-05-05 01:48 41.50809 -81.03807 9318 ft 286 kts 291°
2026-05-05 01:48 41.51434 -81.06291 8735 ft 280 kts 277°
2026-05-05 01:48 41.51527 -81.08868 8188 ft 277 kts 267°
2026-05-05 01:49 41.51434 -81.11419 7818 ft 274 kts 265°
2026-05-05 01:49 41.51318 -81.13915 7731 ft 262 kts 265°
2026-05-05 01:49 41.51211 -81.16255 7724 ft 245 kts 265°
2026-05-05 01:49 41.51111 -81.18497 7726 ft 241 kts 265°
2026-05-05 01:50 41.51013 -81.20698 7742 ft 241 kts 265°
2026-05-05 01:50 41.50916 -81.22939 7741 ft 241 kts 265°
2026-05-05 01:50 41.50821 -81.25175 7743 ft 242 kts 265°
2026-05-05 01:50 41.50725 -81.27417 7741 ft 241 kts 265°
2026-05-05 01:51 41.50541 -81.29638 7742 ft 241 kts 260°
2026-05-05 01:51 41.50252 -81.31841 7745 ft 242 kts 259°
2026-05-05 01:51 41.49951 -81.34052 7560 ft 243 kts 259°
2026-05-05 01:51 41.49645 -81.36273 7179 ft 242 kts 259°
2026-05-05 01:52 41.49347 -81.38468 6865 ft 239 kts 259°
2026-05-05 01:52 41.49060 -81.40643 6764 ft 238 kts 259°
2026-05-05 01:52 41.48781 -81.42798 6688 ft 240 kts 259°
2026-05-05 01:52 41.48492 -81.45006 6291 ft 242 kts 261°
2026-05-05 01:53 41.48631 -81.47201 6099 ft 237 kts 283°
2026-05-05 01:53 41.49124 -81.49251 5948 ft 226 kts 282°
2026-05-05 01:53 41.49571 -81.51217 5833 ft 217 kts 281°
2026-05-05 01:53 41.50004 -81.53099 5721 ft 207 kts 281°
2026-05-05 01:54 41.50427 -81.54892 5635 ft 199 kts 281°
2026-05-05 01:54 41.50841 -81.56613 5509 ft 190 kts 281°
2026-05-05 01:54 41.51244 -81.58259 5423 ft 183 kts 282°
2026-05-05 01:54 41.51636 -81.59831 5331 ft 175 kts 282°
2026-05-05 01:55 41.52015 -81.61329 5229 ft 165 kts 282°
2026-05-05 01:55 41.52333 -81.62703 5088 ft 150 kts 272°
2026-05-05 01:55 41.52356 -81.64058 4802 ft 145 kts 262°
2026-05-05 01:55 41.52302 -81.65394 4507 ft 143 kts 262°
2026-05-05 01:56 41.52250 -81.66712 4200 ft 142 kts 261°
2026-05-05 01:56 41.52207 -81.68023 3900 ft 140 kts 262°
2026-05-05 01:56 41.52169 -81.69308 3554 ft 138 kts 262°
2026-05-05 01:56 41.52065 -81.70563 3208 ft 134 kts 251°
2026-05-05 01:57 41.51511 -81.71527 3021 ft 140 kts 217°
2026-05-05 01:57 41.50554 -81.71951 3013 ft 149 kts 204°
2026-05-05 01:57 41.49580 -81.72348 3003 ft 141 kts 221°
2026-05-05 01:57 41.48884 -81.73241 2964 ft 138 kts 231°
2026-05-05 01:58 41.48265 -81.74202 2807 ft 136 kts 232°
2026-05-05 01:58 41.47657 -81.75170 2591 ft 137 kts 232°
2026-05-05 01:58 41.47044 -81.76145 2424 ft 140 kts 233°
2026-05-05 01:58 41.46417 -81.77140 2226 ft 139 kts 233°
2026-05-05 01:59 41.45791 -81.78135 2039 ft 142 kts 232°
2026-05-05 01:59 41.45146 -81.79160 1843 ft 147 kts 231°
2026-05-05 01:59 41.44490 -81.80200 1666 ft 146 kts 230°
2026-05-05 01:59 41.43838 -81.81237 1490 ft 144 kts 230°
2026-05-05 02:00 41.43164 -81.82285 1366 ft 150 kts 229°
2026-05-05 02:00 41.42524 -81.83310 1268 ft 139 kts 226°
2026-05-05 02:00 41.41916 -81.84295 989 ft 139 kts 229°
2026-05-05 02:00 41.41291 -81.85300 804 ft 140 kts 227°
2026-05-05 02:01 41.40869 -81.85941 790 ft 50 kts 229°
2026-05-05 02:01 41.40681 -81.86216 788 ft 25 kts 215°
2026-05-05 02:01 41.40576 -81.86250 786 ft 5 kts 166°
2026-05-05 02:01 41.40549 -81.86233 785 ft 0 kts 143°
2026-05-05 02:02 41.40540 -81.86223 785 ft 7 kts 142°
2026-05-05 02:02 41.40469 -81.86146 783 ft 20 kts 139°
2026-05-05 02:02 41.40355 -81.86016 782 ft 20 kts 139°
2026-05-05 02:03 41.40308 -81.85951 784 ft 3 kts 107°
2026-05-05 02:03 41.40309 -81.85932 784 ft 3 kts 86°
2026-05-05 02:03 41.40327 -81.85888 785 ft 12 kts 53°
2026-05-05 02:03 41.40380 -81.85801 787 ft 24 kts 48°
2026-05-05 02:04 41.40509 -81.85600 789 ft 28 kts 50°
2026-05-05 02:04 41.40624 -81.85408 789 ft 7 kts 54°
2026-05-05 02:04 41.40625 -81.85407 789 ft 0 kts 54°
2026-05-05 02:04 41.40641 -81.85381 789 ft 8 kts 51°
2026-05-05 02:05 41.40674 -81.85329 788 ft 14 kts 47°
2026-05-05 02:05 41.40756 -81.85207 789 ft 21 kts 49°
2026-05-05 02:05 41.40858 -81.85047 792 ft 26 kts 50°
2026-05-05 02:05 41.40979 -81.84853 799 ft 27 kts 50°
2026-05-05 02:06 41.41034 -81.84765 799 ft 1 kts 50°
2026-05-05 02:06 41.41054 -81.84722 799 ft 10 kts 66°
2026-05-05 02:06 41.41067 -81.84592 802 ft 18 kts 89°
2026-05-05 02:06 41.41063 -81.84393 804 ft 18 kts 94°
2026-05-05 02:07 41.41011 -81.84245 801 ft 17 kts 128°
2026-05-05 02:07 41.40952 -81.84217 802 ft 5 kts 201°
2026-05-05 02:07 41.40883 -81.84292 802 ft 25 kts 219°
2026-05-05 02:07 41.40735 -81.84381 801 ft 16 kts 191°
2026-05-05 02:08 41.40645 -81.84372 801 ft 12 kts 144°
2026-05-05 02:08 41.40627 -81.84316 800 ft 4 kts 82°
2026-05-05 02:08 41.40647 -81.84276 799 ft 6 kts 43°